Terug naar catalogus

METEOR 2-1 DEB

ActiefPO
NORAD 38532·DEBRIS·🇷🇺 Russia

Gelanceerd Jul 11, 1975 vanaf Plesetsk Cosmodrome

Loading…

Volgende Passages (komende 24 uur)

TLE

VerouderdSource: Space-Track

Epoch: Sep 1, 2026, 08:43 UTC

1 38532U 75064E   26244.36323164  .00021490  00000-0  19801-2 0  9996
2 38532  81.1637 116.9417 0004955 164.5334 195.6036 14.94590244119774

Volg METEOR 2-1 DEB in realtime met AllMySat

Download on the App Store